TimeEST,TemperatureF,Dew PointF,Humidity,Sea Level PressureIn,VisibilityMPH,Wind Direction,Wind SpeedMPH,Gust SpeedMPH,PrecipitationIn,Events,Conditions,WindDirDegrees,DateUTC
12:17 AM,18.3,16.5,93,29.98,10.0,West,4.6,-,N/A,,Overcast,260,2012-12-30 05:17:00
12:37 AM,18.5,16.7,93,29.98,10.0,West,6.9,-,N/A,,Overcast,270,2012-12-30 05:37:00
12:57 AM,19.4,17.6,93,29.98,10.0,West,8.1,-,N/A,,Overcast,270,2012-12-30 05:57:00
1:16 AM,18.5,16.7,93,29.98,10.0,West,9.2,-,N/A,,Overcast,260,2012-12-30 06:16:00
1:37 AM,18.9,16.7,91,29.99,10.0,WSW,5.8,-,N/A,,Overcast,250,2012-12-30 06:37:00
1:57 AM,18.5,16.3,91,29.99,10.0,West,5.8,-,N/A,,Overcast,260,2012-12-30 06:57:00
2:17 AM,18.5,15.8,89,30.00,10.0,West,4.6,-,N/A,Snow,Light Snow,260,2012-12-30 07:17:00
2:37 AM,18.3,15.4,89,30.00,10.0,WSW,3.5,-,N/A,,Overcast,250,2012-12-30 07:37:00
2:57 AM,18.1,14.9,87,30.00,10.0,WSW,4.6,-,N/A,Snow,Light Snow,240,2012-12-30 07:57:00
3:17 AM,18.5,15.4,88,30.01,10.0,SW,4.6,-,N/A,,Overcast,230,2012-12-30 08:17:00
3:37 AM,18.9,15.4,87,30.01,10.0,WSW,5.8,-,N/A,,Overcast,250,2012-12-30 08:37:00
3:57 AM,18.7,15.4,87,30.01,10.0,WSW,5.8,-,N/A,Snow,Light Snow,250,2012-12-30 08:57:00
4:17 AM,18.5,15.4,88,30.02,10.0,West,6.9,-,N/A,Snow,Light Snow,260,2012-12-30 09:17:00
4:37 AM,18.9,15.4,87,30.02,10.0,WSW,5.8,-,N/A,Snow,Light Snow,250,2012-12-30 09:37:00
4:56 AM,18.1,14.7,86,30.02,10.0,WSW,5.8,-,N/A,Snow,Light Snow,240,2012-12-30 09:56:00
5:17 AM,16.7,13.8,88,30.03,10.0,WSW,8.1,-,N/A,Snow,Light Snow,240,2012-12-30 10:17:00
5:37 AM,15.6,12.9,89,30.03,10.0,WSW,4.6,-,N/A,,Scattered Clouds,240,2012-12-30 10:37:00
5:56 AM,15.6,13.5,91,30.04,10.0,WSW,4.6,-,N/A,Snow,Light Snow,250,2012-12-30 10:56:00
6:50 AM,14.0,12.2,93,30.05,10.0,West,4.6,-,N/A,,Clear,270,2012-12-30 11:50:00
7:50 AM,14.0,8.6,79,30.08,10.0,West,8.1,-,N/A,,Clear,270,2012-12-30 12:50:00
8:50 AM,12.2,8.6,85,30.08,10.0,West,4.6,-,N/A,,Clear,260,2012-12-30 13:50:00
9:50 AM,14.0,8.6,79,30.07,10.0,WSW,4.6,-,N/A,,Clear,240,2012-12-30 14:50:00
10:50 AM,17.6,14.0,86,30.09,10.0,West,6.9,-,N/A,,Clear,260,2012-12-30 15:50:00
11:50 AM,17.6,10.4,73,30.09,10.0,WSW,4.6,-,N/A,,Scattered Clouds,250,2012-12-30 16:50:00
12:50 PM,17.6,10.4,73,30.06,10.0,WSW,8.1,-,N/A,,Scattered Clouds,250,2012-12-30 17:50:00
1:50 PM,19.4,10.4,68,30.04,10.0,SW,8.1,-,N/A,,Clear,220,2012-12-30 18:50:00
2:50 PM,21.2,12.2,68,30.02,10.0,SW,8.1,-,N/A,,Clear,220,2012-12-30 19:50:00
3:50 PM,19.4,10.4,68,30.00,10.0,SSW,6.9,-,N/A,,Clear,200,2012-12-30 20:50:00
4:50 PM,19.4,10.4,68,29.98,10.0,SSW,9.2,-,N/A,,Clear,200,2012-12-30 21:50:00
5:55 PM,17.6,10.4,73,29.97,10.0,SSW,8.1,-,N/A,,Clear,200,2012-12-30 22:55:00
6:50 PM,17.6,10.4,73,29.95,10.0,SSW,10.4,-,N/A,,Clear,200,2012-12-30 23:50:00
7:50 PM,15.8,10.4,79,29.92,10.0,South,10.4,-,N/A,,Clear,190,2012-12-31 00:50:00
8:50 PM,15.8,10.4,79,29.91,10.0,SSW,10.4,-,N/A,,Clear,200,2012-12-31 01:50:00
9:50 PM,14.0,10.4,86,29.88,10.0,SSW,10.4,-,N/A,,Clear,200,2012-12-31 02:50:00
10:16 PM,14.7,10.8,84,29.87,10.0,SSW,10.4,-,N/A,,Clear,200,2012-12-31 03:16:00
10:37 PM,14.2,10.6,86,29.86,10.0,SSW,11.5,-,N/A,,Scattered Clouds,200,2012-12-31 03:37:00
10:57 PM,15.1,11.3,85,29.85,10.0,SSW,12.7,-,N/A,,Mostly Cloudy,200,2012-12-31 03:57:00
11:17 PM,14.9,11.1,85,29.84,10.0,SSW,12.7,-,N/A,,Mostly Cloudy,200,2012-12-31 04:17:00
11:37 PM,15.4,11.3,84,29.82,10.0,SSW,12.7,17.3,N/A,,Mostly Cloudy,200,2012-12-31 04:37:00
11:57 PM,15.8,11.7,84,29.81,10.0,SSW,13.8,-,N/A,,Overcast,210,2012-12-31 04:57:00